[[{"header":{"parameterUnit":"m.s-1","parameterCategory":1,"la1":30.2991,"la2":30.254,"lo1":-89.0895,"lo2":-89.0444,"dy":0.0017,"dx":0.0017,"nx":28,"ny":28,"refTime":"2023-11-08T09:00:00:Z","depth":0,"parameterNumber":2,"parameterNumberName":"U-component_of_WINDS"},"data":[0,0,0,0,0,0,0,0,0,0,0,0,0,0,0,0,0,0,0,0,0,0,0,0,0,0,0,0,0,0,0,0,0,0,0,0,0,0,0,0,0,0,0,0,0,0,0,0,0,0,0,0,0,0,0,0,0,0,-2.1648,-2.1649,0,-2.1658,-2.1658,-2.1659,-2.1624,-2.1623,-2.1622,-2.1621,-2.1632,-2.1634,-2.1635,0,0,0,0,0,0,0,0,0,0,0,0,0,-2.1603,-2.1604,-2.1648,-2.1649,-2.1649,-2.1658,-2.1658,-2.1659,-2.1624,-2.1623,-2.1622,-2.162,-2.1632,-2.1634,-2.1635,0,0,0,0,0,0,0,0,0,0,0,0,0,-2.1619,-2.1605,-2.1648,-2.1633,-2.1631,-2.1658,-2.1658,-2.1659,-2.1624,-2.1623,-2.1621,-2.162,-2.1632,-2.1633,-2.1635,-2.1678,0,0,-2.1641,-2.1642,0,0,0,0,0,0,0,0,-2.1618,-2.1621,-2.1635,-2.1634,-2.1632,-2.1638,-2.1647,-2.1665,-2.1625,-2.1627,-2.1621,-2.1619,-2.1636,-2.1637,-2.1643,-2.1679,-2.1679,-2.1641,-2.1642,-2.1643,-2.1644,0,0,0,0,0,0,0,-2.1617,-2.162,-2.1652,-2.1635,-2.1634,-2.1626,-2.1627,-2.165,-2.164,-2.1627,-2.1624,-2.1626,-2.1635,-2.1641,-2.1643,-2.168,-2.1641,-2.1643,-2.1644,-2.1645,-2.1754,-2.1756,0,0,0,0,0,0,-2.1618,-2.1619,-2.1652,-2.1653,-2.1621,-2.1628,-2.1629,-2.1638,-2.164,-2.1638,-2.1627,-2.1624,-2.1638,-2.164,-2.1643,-2.1694,-2.1643,-2.1645,-2.1646,-2.1752,-2.1754,-2.1756,0,0,0,0,0,0,-2.1617,-2.1621,-2.1652,-2.1635,-2.1639,-2.1631,-2.1641,-2.1639,-2.1645,-2.164,-2.1638,-2.1635,-2.1637,-2.164,-2.167,-2.1694,-2.1646,-2.1648,-2.175,-2.1753,-2.1755,-2.1796,0,0,0,0,0,0,-2.1616,-2.1621,-2.1636,-2.1636,-2.164,-2.1678,-2.1643,-2.164,-2.1648,-2.1644,-2.1647,-2.1646,-2.1636,-2.1667,-2.1672,-2.1695,-2.1649,-2.1748,-2.1751,-2.1755,-2.1792,-2.18,-2.1806,0,0,0,0,0,-2.1614,-2.1647,-2.1637,-2.1641,-2.1658,-2.1679,-2.1681,-2.1669,-2.165,-2.1666,-2.1663,-2.1646,-2.1691,-2.1671,-2.1676,-2.17,-2.1746,-2.175,-2.1754,-2.1789,-2.1798,-2.1806,0,0,0,0,0,0,-2.165,-2.1646,-2.1635,-2.1669,-2.1675,-2.1673,-2.1692,-2.1679,-2.169,-2.1686,-2.1671,-2.1672,-2.1705,-2.1706,-2.1683,-2.1743,-2.1716,-2.1721,-2.1741,-2.1749,-2.1756,-2.1754,-2.1651,0,0,0,0,0,-2.1661,-2.1678,-2.1674,-2.1704,-2.1708,-2.17,-2.1709,-2.1699,-2.1704,-2.1707,-2.1706,-2.1713,-2.1729,-2.1739,-2.1754,-2.1794,-2.1794,-2.1813,-2.182,-2.1825,-2.1829,-2.1852,-2.186,-2.1769,-2.1769,-2.1769,0,0,-2.1685,-2.1686,-2.1697,-2.1712,-2.1715,-2.1733,-2.1702,-2.1722,-2.1736,-2.171,-2.1738,-2.1738,-2.1745,-2.1781,-2.1796,-2.1782,-2.1855,-2.183,-2.1835,-2.1836,-2.1857,-2.1866,-2.1873,-2.1772,-2.1771,-2.1771,0,0,-2.1738,-2.174,-2.1766,-2.177,-2.1776,-2.1771,-2.1778,-2.1779,-2.1778,-2.1807,-2.1788,-2.1805,-2.1832,-2.1838,-2.1845,-2.1904,-2.1889,-2.191,-2.1944,-2.1966,-2.1973,-2.198,-2.2001,-2.2009,-2.1914,-2.1914,-2.1914,0,-2.1767,-2.1793,-2.1781,-2.1803,-2.181,-2.1789,-2.1815,-2.1821,-2.1831,-2.1837,-2.1822,-2.1857,-2.186,-2.1897,-2.1912,-2.1918,-2.1926,-2.1908,-2.1973,-2.1979,-2.1985,-2.2005,-2.2013,-2.1917,-2.1917,-2.1916,-2.1916,0,-2.1829,-2.1847,-2.1868,-2.1878,-2.1889,-2.1913,-2.1906,-2.1918,-2.1909,-2.1906,-2.1937,-2.194,-2.1955,-2.1964,-2.1955,-2.2001,-2.1992,-2.1975,-2.1947,-2.1996,-2.2015,-2.2023,-2.192,-2.1919,-2.1919,-2.1918,0,0,-2.1901,-2.1907,-2.1914,-2.1919,-2.1926,-2.194,-2.1965,-2.198,-2.1991,-2.2001,-2.2021,-2.2047,-2.2032,-2.204,-2.2032,-2.2052,-2.2099,-2.2033,-2.2033,-2.2044,-2.2151,-2.2162,-2.2171,-2.209,-2.2092,-2.2093,-2.215,0,-2.1952,-2.1993,-2.1984,-2.2024,-2.2042,-2.2024,-2.2046,-2.2053,-2.2052,-2.2068,-2.2068,-2.2086,-2.2066,-2.207,-2.2089,-2.2089,-2.212,-2.2085,-2.2109,-2.211,-2.2106,-2.2181,-2.2192,-2.2246,-2.2157,-2.2158,-2.2159,0,-2.2016,-2.2028,-2.2071,-2.2076,-2.2083,-2.2103,-2.2117,-2.2132,-2.2141,-2.214,-2.215,-2.2139,-2.2166,-2.2139,-2.2176,-2.2152,-2.2163,-2.2165,-2.2166,-2.2167,-2.2136,-2.2182,-2.2262,-2.227,-2.2171,-2.217,-2.2169,0,-2.2064,-2.2091,-2.212,-2.2125,-2.2133,-2.2147,-2.2151,-2.2158,-2.2169,-2.2182,-2.2189,-2.2206,-2.2214,-2.2228,-2.2223,-2.2204,-2.2261,-2.2234,-2.2261,-2.2261,-2.2271,-2.227,-2.2353,-2.2281,-2.2281,-2.228,-2.228,0,-2.2121,-2.2148,-2.2141,-2.2159,-2.2189,-2.2181,-2.2211,-2.2213,-2.222,-2.2239,-2.2226,-2.2244,-2.2237,-2.2256,-2.2252,-2.2283,-2.2288,-2.2288,-2.2286,-2.2288,-2.2288,-2.2293,-2.2288,-2.2283,-2.2282,-2.2282,-2.2281,0,-2.2178,-2.2175,-2.2205,-2.2211,-2.2213,-2.2235,-2.224,-2.2257,-2.2257,-2.2281,-2.2287,-2.2286,-2.2308,-2.2305,-2.2329,-2.2327,-2.2365,-2.236,-2.2362,-2.236,-2.2387,-2.2384,-2.2475,-2.2486,-2.2407,-2.2408,-2.2409,0,-2.2214,-2.2234,-2.2242,-2.2253,-2.2258,-2.2277,-2.2288,-2.2282,-2.2294,-2.2308,-2.2324,-2.2345,-2.236,-2.2395,-2.2398,-2.2417,-2.2411,-2.2442,-2.2414,-2.2416,-2.2411,-2.2409,-2.2412,-2.2447,-2.2447,-2.2448,-2.2449,0,-2.2277,-2.2276,-2.2291,-2.2308,-2.2321,-2.2334,-2.2345,-2.2356,-2.2351,-2.2366,-2.2388,-2.24,-2.2425,-2.2446,-2.2464,-2.247,-2.2459,-2.2458,-2.2465,-2.2466,-2.2466,-2.2466,-2.2376,-2.2455,-2.2455,-2.2454,-2.2454,-2.2454,-2.2324,-2.2342,-2.235,-2.2369,-2.2378,-2.2389,-2.2406,-2.2409,-2.2427,-2.2446,-2.2443,-2.2467,-2.2479,-2.2502,-2.251,-2.2531,-2.2519,-2.253,-2.2532,-2.2535,-2.2537,-2.2465,-2.2534,-2.2534,-2.2534,-2.2534,-2.2534,0,-2.2387,-2.2392,-2.241,-2.2426,-2.2442,-2.2432,-2.2445,-2.2458,-2.248,-2.2492,-2.2508,-2.2534,-2.2555,-2.2561,-2.2581,-2.2596,-2.2592,-2.2602,-2.26,-2.2602,-2.2546,-2.2538,-2.2605,-2.2605,-2.2605,-2.2605,-2.2605,-2.2605,-2.2421,-2.245,-2.245,-2.2484,-2.249,-2.2514,-2.2522,-2.2534,-2.2543,-2.2573,-2.259,-2.2594,-2.2603,-2.2625,-2.2644,-2.2646,-2.2654,-2.2665,-2.2665,-2.2612,-2.2605,-2.2598,-2.259,-2.2667,-2.2668,-2.2718,-2.2719,-2.2719]},{"header":{"parameterUnit":"m.s-1","parameterCategory":1,"la1":30.2991,"la2":30.254,"lo1":-89.0895,"lo2":-89.0444,"dy":0.0017,"dx":0.0017,"nx":28,"ny":28,"refTime":"2023-11-08T09:00:00:Z","depth":0,"parameterNumber":3,"parameterNumberName":"V-component_of_WINDS"},"data":[0,0,0,0,0,0,0,0,0,0,0,0,0,0,0,0,0,0,0,0,0,0,0,0,0,0,0,0,0,0,0,0,0,0,0,0,0,0,0,0,0,0,0,0,0,0,0,0,0,0,0,0,0,0,0,0,0,0,2.1256,2.1256,0,2.1242,2.1242,2.1241,2.13,2.1302,2.1304,2.1305,2.1286,2.1283,2.1281,0,0,0,0,0,0,0,0,0,0,0,0,0,2.1332,2.1331,2.1256,2.1256,2.1256,2.1242,2.1242,2.1241,2.13,2.1302,2.1304,2.1306,2.1286,2.1284,2.1281,0,0,0,0,0,0,0,0,0,0,0,0,0,2.1306,2.133,2.1256,2.1284,2.1286,2.1242,2.1242,2.1241,2.1299,2.1302,2.1305,2.1307,2.1287,2.1284,2.1281,2.1209,0,0,2.1271,2.127,0,0,0,0,0,0,0,0,2.1308,2.1304,2.128,2.1282,2.1284,2.1276,2.1261,2.123,2.1299,2.1294,2.1305,2.1308,2.128,2.1277,2.1269,2.1208,2.1207,2.1271,2.1269,2.1267,2.1266,0,0,0,0,0,0,0,2.131,2.1305,2.1251,2.1279,2.1282,2.1296,2.1295,2.1256,2.1272,2.1295,2.1299,2.1297,2.1281,2.1272,2.1269,2.1206,2.1271,2.1268,2.1266,2.1265,2.1088,2.1085,0,0,0,0,0,0,2.1308,2.1306,2.1251,2.125,2.1303,2.1292,2.1291,2.1276,2.1273,2.1275,2.1294,2.1299,2.1276,2.1272,2.1268,2.1185,2.1267,2.1264,2.1262,2.1091,2.1087,2.1084,0,0,0,0,0,0,2.131,2.1303,2.1252,2.1279,2.1274,2.1288,2.127,2.1274,2.1264,2.1273,2.1276,2.1282,2.1278,2.1273,2.1224,2.1185,2.1263,2.126,2.1094,2.109,2.1086,2.1017,0,0,0,0,0,0,2.1312,2.1303,2.1276,2.1278,2.1272,2.1208,2.1268,2.1272,2.1259,2.1265,2.1261,2.1263,2.1279,2.1228,2.1221,2.1182,2.1257,2.1097,2.1092,2.1087,2.1022,2.1011,2.1001,0,0,0,0,0,2.1314,2.1255,2.1274,2.1267,2.1239,2.1205,2.1202,2.1223,2.1256,2.1229,2.1235,2.1263,2.1191,2.1223,2.1215,2.1174,2.11,2.1093,2.1087,2.1027,2.1013,2.1001,0,0,0,0,0,0,2.1246,2.1256,2.1277,2.1218,2.1211,2.1215,2.1182,2.1207,2.1189,2.1195,2.1221,2.122,2.1167,2.1166,2.1201,2.1106,2.1151,2.1143,2.1108,2.1094,2.1084,2.1085,2.1255,0,0,0,0,0,2.1224,2.1198,2.1208,2.1154,2.115,2.1166,2.1153,2.117,2.1163,2.116,2.1162,2.1153,2.1129,2.1111,2.1089,2.1023,2.1023,2.0991,2.0981,2.0972,2.0964,2.0931,2.0917,2.1064,2.1064,2.1064,0,0,2.1179,2.1181,2.1162,2.1141,2.1137,2.1109,2.1163,2.113,2.1109,2.1154,2.1109,2.111,2.1102,2.1045,2.102,2.1042,2.0924,2.0964,2.0956,2.0954,2.0923,2.0909,2.0897,2.106,2.106,2.1061,0,0,2.1081,2.108,2.1037,2.1033,2.1028,2.104,2.1029,2.1031,2.1035,2.099,2.1024,2.0999,2.0956,2.0949,2.094,2.0844,2.087,2.0835,2.0778,2.0745,2.0734,2.0724,2.069,2.0677,2.0828,2.0828,2.0828,0,2.1024,2.0984,2.101,2.0976,2.0966,2.1008,2.0965,2.0959,2.0946,2.0938,2.0964,2.0913,2.091,2.0853,2.083,2.082,2.0809,2.0835,2.0733,2.0724,2.0714,2.0683,2.067,2.0824,2.0824,2.0825,2.0825,0,2.0915,2.0886,2.0852,2.0841,2.0827,2.0788,2.0808,2.0791,2.081,2.0819,2.0774,2.0773,2.0752,2.074,2.0757,2.0685,2.07,2.0729,2.0775,2.0696,2.0667,2.0654,2.0818,2.0819,2.0821,2.0822,0,0,2.0771,2.0779,2.0766,2.0763,2.0762,2.074,2.0703,2.0685,2.067,2.066,2.063,2.0594,2.0622,2.0612,2.0629,2.06,2.0525,2.0634,2.0634,2.0614,2.0448,2.0426,2.0411,2.0543,2.0541,2.0539,2.0449,0,2.0677,2.0616,2.064,2.0576,2.0551,2.0593,2.0561,2.0556,2.0564,2.0543,2.0552,2.0526,2.0565,2.0559,2.0533,2.054,2.0492,2.0547,2.0515,2.0514,2.0516,2.0396,2.0372,2.0286,2.0437,2.0435,2.0434,0,2.0557,2.0546,2.048,2.0487,2.0477,2.0448,2.0435,2.0414,2.041,2.0418,2.0409,2.0433,2.0397,2.0444,2.0395,2.0432,2.042,2.0422,2.0419,2.0417,2.0469,2.039,2.0259,2.0246,2.0416,2.0417,2.0418,0,2.046,2.0428,2.0386,2.0382,2.0387,2.0366,2.0367,2.0367,2.0355,2.0343,2.0336,2.0319,2.031,2.0296,2.0315,2.0347,2.0264,2.0312,2.0269,2.0269,2.0249,2.025,2.0115,2.0241,2.0242,2.0242,2.0242,0,2.0352,2.031,2.0343,2.0316,2.0272,2.03,2.0255,2.026,2.026,2.0235,2.027,2.0245,2.0272,2.0251,2.0266,2.0224,2.0219,2.0224,2.0228,2.0221,2.022,2.0214,2.022,2.0239,2.0239,2.024,2.0241,0,2.0235,2.0256,2.0212,2.0223,2.0224,2.0191,2.0199,2.0175,2.0187,2.0156,2.015,2.0167,2.0144,2.0163,2.0139,2.0149,2.0094,2.0106,2.0095,2.0099,2.0056,2.006,1.9911,1.9893,2.0031,2.003,2.0029,0,2.0165,2.0134,2.0143,2.013,2.013,2.0108,2.0097,2.0124,2.0112,2.0107,2.0084,2.0064,2.0049,2.001,2.002,2.0003,2.0015,1.9965,2.0013,2.0007,2.0015,2.0017,2.0015,1.9954,1.9953,1.9951,1.995,0,2.0037,2.005,2.0034,2.0022,2.0009,2.0001,1.9994,1.9981,2.001,1.9994,1.9972,1.9961,1.9938,1.9918,1.9905,1.9905,1.9932,1.9935,1.9925,1.9917,1.9912,1.9915,2.0069,1.9938,1.994,1.994,1.9941,1.9942,1.9942,1.9918,1.9921,1.9903,1.9902,1.9896,1.9875,1.9886,1.9868,1.9854,1.987,1.9844,1.9843,1.9828,1.9826,1.9805,1.9826,1.981,1.9806,1.9802,1.9796,1.9916,1.9802,1.9803,1.9803,1.9803,1.9803,0,1.9818,1.9823,1.9806,1.9798,1.9784,1.9813,1.9809,1.9794,1.9771,1.9769,1.9755,1.973,1.9712,1.9722,1.9706,1.9687,1.9699,1.9682,1.9683,1.9683,1.9778,1.9789,1.9673,1.9673,1.9673,1.9673,1.9673,1.9673,1.9751,1.9713,1.9726,1.9687,1.9692,1.9668,1.9663,1.9658,1.9657,1.9629,1.9614,1.9622,1.9624,1.9609,1.9594,1.9597,1.959,1.9568,1.9576,1.9664,1.9676,1.9689,1.97,1.9566,1.9566,1.9484,1.9483,1.9482]}]]